date,time,SUV Intensity [MED/Hr],UV Index,Daily total [MED],Since Last [MED]
07/05/2022,00:07:47,0.000,0.0,0.0,0.0
07/05/2022,00:08:46,-0.000,0.0,0.0,0.0
07/05/2022,00:09:47,0.000,0.0,0.0,0.0
07/05/2022,00:10:47,-0.000,0.0,0.0,0.0
07/05/2022,00:11:46,-0.001,0.0,0.0,0.0
07/05/2022,00:12:47,-0.001,0.0,0.0,0.0
07/05/2022,00:13:47,0.000,0.0,0.0,0.0
07/05/2022,00:14:47,0.001,0.0,0.0,0.0
07/05/2022,00:15:47,0.000,0.0,0.0,0.0
07/05/2022,00:16:47,0.000,0.0,0.0,0.0
07/05/2022,00:17:47,-0.001,0.0,0.0,0.0
07/05/2022,00:18:46,0.000,0.0,0.0,0.0
07/05/2022,00:19:47,-0.000,0.0,0.0,0.0
07/05/2022,00:20:47,0.000,0.0,0.0,0.0
07/05/2022,00:21:47,0.000,0.0,0.0,0.0
07/05/2022,00:22:46,0.000,0.0,0.0,0.0
07/05/2022,00:23:46,0.000,0.0,0.0,0.0
07/05/2022,00:24:46,-0.000,0.0,0.0,0.0
07/05/2022,00:25:55,0.000,0.0,0.0,0.0
07/05/2022,00:27:47,-0.000,0.0,0.0,0.0
07/05/2022,00:28:47,-0.001,0.0,0.0,0.0
07/05/2022,00:29:46,-0.000,0.0,0.0,0.0
07/05/2022,00:30:47,-0.000,0.0,0.0,0.0
07/05/2022,00:31:47,-0.000,0.0,0.0,0.0
07/05/2022,00:32:47,-0.001,0.0,0.0,0.0
07/05/2022,00:33:46,-0.000,0.0,0.0,0.0
07/05/2022,00:34:46,-0.000,0.0,0.0,0.0
07/05/2022,00:35:47,0.000,0.0,0.0,0.0
07/05/2022,00:36:47,-0.000,0.0,0.0,0.0
07/05/2022,00:37:46,-0.000,0.0,0.0,0.0
07/05/2022,00:38:54,-0.001,0.0,0.0,0.0
07/05/2022,00:40:47,-0.001,0.0,0.0,0.0
07/05/2022,00:41:46,-0.001,0.0,0.0,0.0
07/05/2022,00:42:46,0.000,0.0,0.0,0.0
07/05/2022,00:43:46,-0.001,0.0,0.0,0.0
07/05/2022,00:44:47,0.000,0.0,0.0,0.0
07/05/2022,00:45:46,-0.000,0.0,0.0,0.0
07/05/2022,00:46:46,0.000,0.0,0.0,0.0
07/05/2022,00:47:47,0.001,0.0,0.0,0.0
07/05/2022,00:48:47,-0.000,0.0,0.0,0.0
07/05/2022,00:49:49,0.000,0.0,0.0,0.0
07/05/2022,00:50:47,-0.001,0.0,0.0,0.0
07/05/2022,00:51:47,-0.000,0.0,0.0,0.0
07/05/2022,00:52:47,0.000,0.0,0.0,0.0
07/05/2022,00:53:46,-0.000,0.0,0.0,0.0
07/05/2022,00:54:46,-0.001,0.0,0.0,0.0
07/05/2022,00:55:46,0.001,0.0,0.0,0.0
07/05/2022,00:56:47,0.000,0.0,0.0,0.0
07/05/2022,00:57:46,0.000,0.0,0.0,0.0
07/05/2022,00:58:46,0.000,0.0,0.0,0.0
07/05/2022,00:59:47,0.000,0.0,0.0,0.0
07/05/2022,01:00:47,0.001,0.0,0.0,0.0
07/05/2022,01:01:46,0.001,0.0,0.0,0.0
07/05/2022,01:02:47,-0.000,0.0,0.0,0.0
07/05/2022,01:03:47,0.000,0.0,0.0,0.0
07/05/2022,01:04:55,-0.000,0.0,0.0,0.0
07/05/2022,01:06:47,-0.000,0.0,0.0,0.0
07/05/2022,01:07:54,0.001,0.0,0.0,0.0
07/05/2022,01:08:46,-0.001,0.0,0.0,0.0
07/05/2022,01:09:46,-0.000,0.0,0.0,0.0
07/05/2022,01:10:47,0.001,0.0,0.0,0.0
07/05/2022,01:11:46,-0.000,0.0,0.0,0.0
07/05/2022,01:12:47,0.000,0.0,0.0,0.0
07/05/2022,01:13:46,-0.000,0.0,0.0,0.0
07/05/2022,01:14:47,0.000,0.0,0.0,0.0
07/05/2022,01:15:47,0.000,0.0,0.0,0.0
07/05/2022,01:16:56,0.000,0.0,0.0,0.0
07/05/2022,01:18:48,0.000,0.0,0.0,0.0
07/05/2022,01:19:47,0.001,0.0,0.0,0.0
07/05/2022,01:20:47,-0.000,0.0,0.0,0.0
07/05/2022,01:21:46,-0.000,0.0,0.0,0.0
07/05/2022,01:22:46,0.001,0.0,0.0,0.0
07/05/2022,01:23:54,0.000,0.0,0.0,0.0
07/05/2022,01:25:48,0.000,0.0,0.0,0.0
07/05/2022,01:26:46,0.000,0.0,0.0,0.0
07/05/2022,01:27:47,0.000,0.0,0.0,0.0
07/05/2022,01:28:47,0.001,0.0,0.0,0.0
07/05/2022,01:29:47,0.001,0.0,0.0,0.0
07/05/2022,01:30:47,0.001,0.0,0.0,0.0
07/05/2022,01:31:46,0.001,0.0,0.0,0.0
07/05/2022,01:32:47,0.000,0.0,0.0,0.0
07/05/2022,01:33:55,-0.001,0.0,0.0,0.0
07/05/2022,01:36:00,0.000,0.0,0.0,0.0
07/05/2022,01:37:58,-0.001,0.0,0.0,0.0
07/05/2022,01:39:47,-0.001,0.0,0.0,0.0
07/05/2022,01:40:46,-0.001,0.0,0.0,0.0
07/05/2022,01:41:46,0.000,0.0,0.0,0.0
07/05/2022,01:42:47,0.000,0.0,0.0,0.0
07/05/2022,01:43:47,0.000,0.0,0.0,0.0
07/05/2022,01:44:46,0.001,0.0,0.0,0.0
07/05/2022,01:45:46,0.000,0.0,0.0,0.0
07/05/2022,01:46:55,-0.000,0.0,0.0,0.0
07/05/2022,01:48:48,0.000,0.0,0.0,0.0
07/05/2022,01:49:55,-0.001,0.0,0.0,0.0
07/05/2022,01:51:48,0.000,0.0,0.0,0.0
07/05/2022,01:52:54,0.000,0.0,0.0,0.0
07/05/2022,01:54:47,0.000,0.0,0.0,0.0
07/05/2022,01:55:47,0.001,0.0,0.0,0.0
07/05/2022,01:56:46,-0.000,0.0,0.0,0.0
07/05/2022,01:57:55,0.000,0.0,0.0,0.0
07/05/2022,01:58:46,-0.001,0.0,0.0,0.0
07/05/2022,01:59:55,-0.000,0.0,0.0,0.0
07/05/2022,02:01:48,0.000,0.0,0.0,0.0
07/05/2022,02:02:46,0.001,0.0,0.0,0.0
07/05/2022,02:03:47,0.001,0.0,0.0,0.0
07/05/2022,02:04:47,0.000,0.0,0.0,0.0
07/05/2022,02:05:46,0.000,0.0,0.0,0.0
07/05/2022,02:06:46,0.001,0.0,0.0,0.0
07/05/2022,02:07:46,0.001,0.0,0.0,0.0
07/05/2022,02:08:47,-0.000,0.0,0.0,0.0
07/05/2022,02:09:46,0.000,0.0,0.0,0.0
07/05/2022,02:10:47,0.000,0.0,0.0,0.0
07/05/2022,02:11:47,0.000,0.0,0.0,0.0
07/05/2022,02:12:55,-0.001,0.0,0.0,0.0
07/05/2022,02:14:47,-0.001,0.0,0.0,0.0
07/05/2022,02:15:47,-0.001,0.0,0.0,0.0
07/05/2022,02:16:47,0.000,0.0,0.0,0.0
07/05/2022,02:17:47,0.000,0.0,0.0,0.0
07/05/2022,02:18:47,-0.001,0.0,0.0,0.0
07/05/2022,02:19:47,0.001,0.0,0.0,0.0
07/05/2022,02:20:46,0.000,0.0,0.0,0.0
07/05/2022,02:21:46,0.000,0.0,0.0,0.0
07/05/2022,02:22:55,0.000,0.0,0.0,0.0
07/05/2022,02:24:47,0.000,0.0,0.0,0.0
07/05/2022,02:25:55,0.000,0.0,0.0,0.0
07/05/2022,02:27:48,0.000,0.0,0.0,0.0
07/05/2022,02:28:56,0.001,0.0,0.0,0.0
07/05/2022,02:30:47,-0.000,0.0,0.0,0.0
07/05/2022,02:31:46,-0.000,0.0,0.0,0.0
07/05/2022,02:32:47,0.000,0.0,0.0,0.0
07/05/2022,02:33:47,-0.000,0.0,0.0,0.0
07/05/2022,02:34:47,0.000,0.0,0.0,0.0
07/05/2022,02:35:47,0.001,0.0,0.0,0.0
07/05/2022,02:36:47,0.001,0.0,0.0,0.0
07/05/2022,02:37:47,0.000,0.0,0.0,0.0
07/05/2022,02:38:55,0.000,0.0,0.0,0.0
07/05/2022,02:40:47,0.000,0.0,0.0,0.0
07/05/2022,02:41:47,-0.001,0.0,0.0,0.0
07/05/2022,02:42:45,-0.000,0.0,0.0,0.0
07/05/2022,02:43:47,0.001,0.0,0.0,0.0
07/05/2022,02:44:49,0.000,0.0,0.0,0.0
07/05/2022,02:45:46,0.001,0.0,0.0,0.0
07/05/2022,02:46:47,-0.000,0.0,0.0,0.0
07/05/2022,02:47:47,-0.000,0.0,0.0,0.0
07/05/2022,02:48:55,0.001,0.0,0.0,0.0
07/05/2022,02:50:48,0.000,0.0,0.0,0.0
07/05/2022,02:51:46,-0.000,0.0,0.0,0.0
07/05/2022,02:52:47,-0.000,0.0,0.0,0.0
07/05/2022,02:53:47,-0.000,0.0,0.0,0.0
07/05/2022,02:54:47,0.000,0.0,0.0,0.0
07/05/2022,02:55:47,0.001,0.0,0.0,0.0
07/05/2022,02:56:47,0.000,0.0,0.0,0.0
07/05/2022,02:57:47,-0.000,0.0,0.0,0.0
07/05/2022,02:58:46,0.001,0.0,0.0,0.0
07/05/2022,02:59:47,-0.001,0.0,0.0,0.0
07/05/2022,03:00:46,0.000,0.0,0.0,0.0
07/05/2022,03:01:47,-0.001,0.0,0.0,0.0
07/05/2022,03:02:47,0.000,0.0,0.0,0.0
07/05/2022,03:03:46,0.000,0.0,0.0,0.0
07/05/2022,03:04:55,0.000,0.0,0.0,0.0
07/05/2022,03:05:47,-0.000,0.0,0.0,0.0
07/05/2022,03:06:47,-0.000,0.0,0.0,0.0
07/05/2022,03:07:46,-0.001,0.0,0.0,0.0
07/05/2022,03:08:47,-0.001,0.0,0.0,0.0
07/05/2022,03:09:47,0.000,0.0,0.0,0.0
07/05/2022,03:10:47,0.000,0.0,0.0,0.0
07/05/2022,03:11:46,-0.001,0.0,0.0,0.0
07/05/2022,03:12:47,-0.000,0.0,0.0,0.0
07/05/2022,03:13:45,0.000,0.0,0.0,0.0
07/05/2022,03:14:47,-0.000,0.0,0.0,0.0
07/05/2022,03:15:47,0.000,0.0,0.0,0.0
07/05/2022,03:16:47,-0.000,0.0,0.0,0.0
07/05/2022,03:17:47,-0.000,0.0,0.0,0.0
07/05/2022,03:18:47,-0.001,0.0,0.0,0.0
07/05/2022,03:19:47,0.000,0.0,0.0,0.0
07/05/2022,03:20:46,0.000,0.0,0.0,0.0
07/05/2022,03:21:47,-0.000,0.0,0.0,0.0
07/05/2022,03:22:47,-0.001,0.0,0.0,0.0
07/05/2022,03:23:47,0.001,0.0,0.0,0.0
07/05/2022,03:24:46,-0.001,0.0,0.0,0.0
07/05/2022,03:25:46,0.000,0.0,0.0,0.0
07/05/2022,03:26:47,-0.000,0.0,0.0,0.0
07/05/2022,03:27:47,-0.000,0.0,0.0,0.0
07/05/2022,03:28:46,-0.000,0.0,0.0,0.0
07/05/2022,03:29:47,-0.000,0.0,0.0,0.0
07/05/2022,03:30:46,-0.000,0.0,0.0,0.0
07/05/2022,03:31:47,0.001,0.0,0.0,0.0
07/05/2022,03:32:47,0.001,0.0,0.0,0.0
07/05/2022,03:33:56,0.000,0.0,0.0,0.0
07/05/2022,03:34:47,-0.001,0.0,0.0,0.0
07/05/2022,03:35:47,-0.000,0.0,0.0,0.0
07/05/2022,03:36:47,-0.000,0.0,0.0,0.0
07/05/2022,03:37:46,-0.000,0.0,0.0,0.0
07/05/2022,03:38:47,-0.001,0.0,0.0,0.0
07/05/2022,03:39:46,-0.001,0.0,0.0,0.0
07/05/2022,03:40:47,0.000,0.0,0.0,0.0
07/05/2022,03:41:46,-0.000,0.0,0.0,0.0
07/05/2022,03:42:46,-0.000,0.0,0.0,0.0
07/05/2022,03:43:56,0.000,0.0,0.0,0.0
07/05/2022,03:45:40,0.000,0.0,0.0,0.0
07/05/2022,03:46:48,0.000,0.0,0.0,0.0
07/05/2022,03:47:47,-0.001,0.0,0.0,0.0
07/05/2022,03:48:47,0.001,0.0,0.0,0.0
07/05/2022,03:49:47,-0.000,0.0,0.0,0.0
07/05/2022,03:50:47,-0.000,0.0,0.0,0.0
07/05/2022,03:51:47,-0.001,0.0,0.0,0.0
07/05/2022,03:52:48,-0.000,0.0,0.0,0.0
07/05/2022,03:53:47,0.001,0.0,0.0,0.0
07/05/2022,03:54:47,0.000,0.0,0.0,0.0
07/05/2022,03:55:47,0.000,0.0,0.0,0.0
07/05/2022,03:56:55,0.000,0.0,0.0,0.0
07/05/2022,03:59:04,-0.000,0.0,0.0,0.0
07/05/2022,04:00:47,0.001,0.0,0.0,0.0
07/05/2022,04:01:47,0.001,0.0,0.0,0.0
07/05/2022,04:02:55,0.000,0.0,0.0,0.0
07/05/2022,04:03:47,0.000,0.0,0.0,0.0
07/05/2022,04:04:47,0.000,0.0,0.0,0.0
07/05/2022,04:05:47,0.000,0.0,0.0,0.0
07/05/2022,04:06:47,0.001,0.0,0.0,0.0
07/05/2022,04:07:47,0.000,0.0,0.0,0.0
07/05/2022,04:08:47,0.000,0.0,0.0,0.0
07/05/2022,04:09:47,-0.000,0.0,0.0,0.0
07/05/2022,04:10:47,0.000,0.0,0.0,0.0
07/05/2022,04:11:47,0.000,0.0,0.0,0.0
07/05/2022,04:12:55,0.000,0.0,0.0,0.0
07/05/2022,04:14:48,0.000,0.0,0.0,0.0
07/05/2022,04:15:46,0.000,0.0,0.0,0.0
07/05/2022,04:16:47,0.000,0.0,0.0,0.0
07/05/2022,04:17:47,0.001,0.0,0.0,0.0
07/05/2022,04:18:47,0.001,0.0,0.0,0.0
07/05/2022,04:19:47,0.000,0.0,0.0,0.0
07/05/2022,04:20:47,0.000,0.0,0.0,0.0
07/05/2022,04:21:47,-0.000,0.0,0.0,0.0
07/05/2022,04:22:55,0.000,0.0,0.0,0.0
07/05/2022,04:24:47,0.000,0.0,0.0,0.0
07/05/2022,04:25:55,0.001,0.0,0.0,0.0
07/05/2022,04:27:47,0.000,0.0,0.0,0.0
07/05/2022,04:28:47,0.000,0.0,0.0,0.0
07/05/2022,04:29:47,0.001,0.0,0.0,0.0
07/05/2022,04:30:47,0.002,0.0,0.0,0.0
07/05/2022,04:31:47,0.000,0.0,0.0,0.0
07/05/2022,04:32:47,0.001,0.0,0.0,0.0
07/05/2022,04:33:47,0.002,0.0,0.0,0.0
07/05/2022,04:34:47,0.001,0.0,0.0,0.0
07/05/2022,04:35:47,0.001,0.0,0.0,0.0
07/05/2022,04:36:47,0.002,0.0,0.0,0.0
07/05/2022,04:37:47,0.002,0.0,0.0,0.0
07/05/2022,04:38:56,0.002,0.0,0.0,0.0
07/05/2022,04:40:47,0.002,0.0,0.0,0.0
07/05/2022,04:41:47,0.002,0.0,0.0,0.0
07/05/2022,04:42:47,0.002,0.0,0.0,0.0
07/05/2022,04:43:47,0.002,0.0,0.0,0.0
07/05/2022,04:44:47,0.002,0.0,0.0,0.0
07/05/2022,04:45:47,0.002,0.0,0.0,0.0
07/05/2022,04:46:47,0.000,0.0,0.0,0.0
07/05/2022,04:47:47,0.002,0.0,0.0,0.0
07/05/2022,04:48:55,0.002,0.0,0.0,0.0
07/05/2022,04:49:48,0.002,0.0,0.0,0.0
07/05/2022,04:50:47,0.002,0.0,0.0,0.0
07/05/2022,04:51:47,0.002,0.0,0.0,0.0
07/05/2022,04:52:47,0.002,0.0,0.0,0.0
07/05/2022,04:53:49,0.002,0.0,0.0,0.0
07/05/2022,04:54:47,0.003,0.0,0.0,0.0
07/05/2022,04:55:47,0.002,0.0,0.0,0.0
07/05/2022,04:56:47,0.003,0.0,0.0,0.0
07/05/2022,04:57:47,0.004,0.0,0.0,0.0
07/05/2022,04:58:55,0.004,0.0,0.0,0.0
07/05/2022,04:59:47,0.004,0.0,0.0,0.0
07/05/2022,05:00:47,0.006,0.0,0.0,0.0
07/05/2022,05:01:47,0.007,0.0,0.0,0.0
07/05/2022,05:02:47,0.007,0.0,0.0,0.0
07/05/2022,05:03:47,0.007,0.0,0.0,0.0
07/05/2022,05:04:48,0.008,0.0,0.0,0.0
07/05/2022,05:05:47,0.009,0.0,0.001,0.001
07/05/2022,05:06:47,0.008,0.0,0.001,0.0
07/05/2022,05:07:47,0.008,0.0,0.001,0.0
07/05/2022,05:08:47,0.007,0.0,0.001,0.0
07/05/2022,05:09:47,0.007,0.0,0.001,0.0
07/05/2022,05:10:47,0.007,0.0,0.001,0.0
07/05/2022,05:11:47,0.007,0.0,0.001,0.0
07/05/2022,05:12:47,0.008,0.0,0.001,0.0
07/05/2022,05:13:47,0.007,0.0,0.002,0.001
07/05/2022,05:14:55,0.008,0.0,0.002,0.0
07/05/2022,05:15:46,0.009,0.0,0.002,0.0
07/05/2022,05:16:47,0.010,0.0,0.002,0.0
07/05/2022,05:17:47,0.010,0.0,0.002,0.0
07/05/2022,05:18:47,0.010,0.0,0.002,0.0
07/05/2022,05:19:47,0.010,0.0,0.002,0.0
07/05/2022,05:20:47,0.009,0.0,0.003,0.001
07/05/2022,05:21:47,0.009,0.0,0.003,0.0
07/05/2022,05:22:47,0.008,0.0,0.003,0.0
07/05/2022,05:23:46,0.008,0.0,0.003,0.0
07/05/2022,05:24:47,0.007,0.0,0.003,0.0
07/05/2022,05:25:47,0.007,0.0,0.003,0.0
07/05/2022,05:26:47,0.006,0.0,0.003,0.0
07/05/2022,05:27:55,0.007,0.0,0.004,0.001
07/05/2022,05:29:47,0.007,0.0,0.004,0.0
07/05/2022,05:30:47,0.008,0.0,0.004,0.0
07/05/2022,05:31:47,0.008,0.0,0.004,0.0
07/05/2022,05:32:47,0.007,0.0,0.004,0.0
07/05/2022,05:33:47,0.007,0.0,0.004,0.0
07/05/2022,05:34:47,0.007,0.0,0.004,0.0
07/05/2022,05:35:47,0.007,0.0,0.004,0.0
07/05/2022,05:36:55,0.007,0.0,0.005,0.001
07/05/2022,05:37:55,0.008,0.0,0.005,0.0
07/05/2022,05:38:47,0.007,0.0,0.005,0.0
07/05/2022,05:39:47,0.006,0.0,0.005,0.0
07/05/2022,05:40:47,0.006,0.0,0.005,0.0
07/05/2022,05:41:47,0.007,0.0,0.005,0.0
07/05/2022,05:42:47,0.009,0.0,0.005,0.0
07/05/2022,05:43:47,0.009,0.0,0.005,0.0
07/05/2022,05:44:47,0.009,0.0,0.006,0.001
07/05/2022,05:45:49,0.009,0.0,0.006,0.0
07/05/2022,05:46:56,0.011,0.0,0.006,0.0
07/05/2022,05:48:47,0.013,0.0,0.006,0.0
07/05/2022,05:49:47,0.014,0.0,0.007,0.001
07/05/2022,05:50:47,0.015,0.0,0.007,0.0
07/05/2022,05:51:47,0.013,0.0,0.007,0.0
07/05/2022,05:52:47,0.016,0.0,0.007,0.0
07/05/2022,05:53:47,0.017,0.0,0.008,0.001
07/05/2022,05:54:48,0.019,0.0,0.008,0.0
07/05/2022,05:55:47,0.018,0.0,0.008,0.0
07/05/2022,05:56:55,0.018,0.0,0.008,0.0
07/05/2022,05:58:47,0.018,0.0,0.009,0.001
07/05/2022,05:59:47,0.017,0.0,0.009,0.0
07/05/2022,06:00:47,0.018,0.0,0.01,0.001
07/05/2022,06:01:47,0.019,0.0,0.01,0.0
07/05/2022,06:02:47,0.020,0.0,0.01,0.0
07/05/2022,06:03:48,0.020,0.0,0.011,0.001
07/05/2022,06:04:47,0.021,0.0,0.011,0.0
07/05/2022,06:05:47,0.023,0.0,0.011,0.0
07/05/2022,06:06:56,0.024,0.0,0.012,0.001
07/05/2022,06:08:47,0.024,0.0,0.012,0.0
07/05/2022,06:09:56,0.029,0.0,0.013,0.001
07/05/2022,06:11:48,0.031,0.0,0.014,0.001
07/05/2022,06:12:47,0.036,0.0,0.014,0.0
07/05/2022,06:13:47,0.034,0.0,0.015,0.001
07/05/2022,06:14:47,0.034,0.0,0.016,0.001
07/05/2022,06:15:47,0.039,0.0,0.016,0.0
07/05/2022,06:16:47,0.037,0.0,0.017,0.001
07/05/2022,06:17:47,0.038,0.0,0.017,0.0
07/05/2022,06:18:47,0.036,0.0,0.018,0.001
07/05/2022,06:19:48,0.036,0.0,0.019,0.001
07/05/2022,06:20:47,0.039,0.0,0.019,0.0
07/05/2022,06:21:47,0.036,0.0,0.02,0.001
07/05/2022,06:22:56,0.036,0.0,0.021,0.001
07/05/2022,06:24:48,0.039,0.0,0.022,0.001
07/05/2022,06:25:47,0.046,0.0,0.022,0.0
07/05/2022,06:26:48,0.052,0.0,0.023,0.001
07/05/2022,06:27:47,0.058,0.0,0.024,0.001
07/05/2022,06:28:47,0.058,0.0,0.025,0.001
07/05/2022,06:29:47,0.063,0.0,0.026,0.001
07/05/2022,06:30:47,0.066,0.0,0.027,0.001
07/05/2022,06:31:47,0.073,0.0,0.028,0.001
07/05/2022,06:32:55,0.075,0.0,0.03,0.002
07/05/2022,06:34:47,0.082,0.0,0.032,0.002
07/05/2022,06:35:48,0.079,0.0,0.034,0.002
07/05/2022,06:36:47,0.085,0.0,0.035,0.001
07/05/2022,06:37:47,0.085,0.0,0.036,0.001
07/05/2022,06:38:47,0.085,0.0,0.038,0.002
07/05/2022,06:39:47,0.081,0.0,0.039,0.001
07/05/2022,06:40:47,0.090,0.0,0.04,0.001
07/05/2022,06:41:47,0.100,0.0,0.042,0.002
07/05/2022,06:42:48,0.107,0.0,0.044,0.002
07/05/2022,06:43:47,0.116,0.0,0.046,0.002
07/05/2022,06:44:47,0.124,0.0,0.048,0.002
07/05/2022,06:45:48,0.131,0.0,0.05,0.002
07/05/2022,06:46:47,0.133,0.0,0.052,0.002
07/05/2022,06:47:47,0.135,0.0,0.054,0.002
07/05/2022,06:48:56,0.142,0.0,0.057,0.003
07/05/2022,06:49:55,0.146,0.0,0.059,0.002
07/05/2022,06:50:48,0.151,0.0,0.061,0.002
07/05/2022,06:51:47,0.156,0.0,0.064,0.003
07/05/2022,06:52:47,0.158,0.0,0.067,0.003
07/05/2022,06:53:47,0.160,0.0,0.069,0.002
07/05/2022,06:54:47,0.167,0.0,0.072,0.003
07/05/2022,06:55:47,0.169,0.0,0.075,0.003
07/05/2022,06:56:47,0.176,0.0,0.078,0.003
07/05/2022,06:57:47,0.180,0.0,0.081,0.003
07/05/2022,06:58:47,0.182,0.0,0.084,0.003
07/05/2022,06:59:47,0.186,0.0,0.087,0.003
07/05/2022,07:00:47,0.192,0.0,0.09,0.003
07/05/2022,07:01:47,0.191,0.0,0.093,0.003
07/05/2022,07:02:47,0.193,0.0,0.096,0.003
07/05/2022,07:03:47,0.198,0.0,0.099,0.003
07/05/2022,07:04:47,0.198,0.0,0.103,0.004
07/05/2022,07:05:47,0.201,0.0,0.106,0.003
07/05/2022,07:06:47,0.202,0.0,0.109,0.003
07/05/2022,07:07:48,0.202,0.0,0.113,0.004
07/05/2022,07:08:48,0.201,0.0,0.116,0.003
07/05/2022,07:09:54,0.204,0.0,0.12,0.004
07/05/2022,07:10:47,0.209,0.0,0.123,0.003
07/05/2022,07:11:47,0.210,0.0,0.127,0.004
07/05/2022,07:12:47,0.213,0.0,0.13,0.003
07/05/2022,07:13:47,0.215,0.0,0.134,0.004
07/05/2022,07:14:47,0.222,1.0,0.137,0.003
07/05/2022,07:15:47,0.223,1.0,0.141,0.004
07/05/2022,07:16:47,0.220,1.0,0.145,0.004
07/05/2022,07:17:47,0.226,1.0,0.148,0.003
07/05/2022,07:18:47,0.226,1.0,0.152,0.004
07/05/2022,07:19:47,0.207,0.0,0.156,0.004
07/05/2022,07:20:47,0.208,0.0,0.159,0.003
07/05/2022,07:21:47,0.220,1.0,0.163,0.004
07/05/2022,07:22:47,0.237,1.0,0.167,0.004
07/05/2022,07:23:47,0.241,1.0,0.171,0.004
07/05/2022,07:24:47,0.259,1.0,0.175,0.004
07/05/2022,07:25:57,0.269,1.0,0.18,0.005
07/05/2022,07:27:49,0.279,1.0,0.189,0.009
07/05/2022,07:28:48,0.285,1.0,0.193,0.004
07/05/2022,07:29:47,0.290,1.0,0.198,0.005
07/05/2022,07:30:47,0.293,1.0,0.203,0.005
07/05/2022,07:31:47,0.296,1.0,0.208,0.005
07/05/2022,07:32:47,0.300,1.0,0.212,0.004
07/05/2022,07:33:47,0.302,1.0,0.218,0.006
07/05/2022,07:34:48,0.300,1.0,0.223,0.005
07/05/2022,07:35:48,0.315,1.0,0.228,0.005
07/05/2022,07:36:48,0.313,1.0,0.233,0.005
07/05/2022,07:37:48,0.292,1.0,0.238,0.005
07/05/2022,07:38:47,0.301,1.0,0.243,0.005
07/05/2022,07:39:47,0.333,1.0,0.248,0.005
07/05/2022,07:40:47,0.357,1.0,0.254,0.006
07/05/2022,07:41:55,0.342,1.0,0.261,0.007
07/05/2022,07:42:47,0.341,1.0,0.266,0.005
07/05/2022,07:43:47,0.357,1.0,0.271,0.005
07/05/2022,07:44:47,0.336,1.0,0.277,0.006
07/05/2022,07:45:56,0.338,1.0,0.283,0.006
07/05/2022,07:47:48,0.328,1.0,0.294,0.011
07/05/2022,07:48:47,0.336,1.0,0.299,0.005
07/05/2022,07:49:48,0.342,1.0,0.305,0.006
07/05/2022,07:50:48,0.343,1.0,0.311,0.006
07/05/2022,07:51:55,0.343,1.0,0.317,0.006
07/05/2022,07:52:47,0.347,1.0,0.322,0.005
07/05/2022,07:53:47,0.364,1.0,0.328,0.006
07/05/2022,07:54:47,0.377,1.0,0.334,0.006
07/05/2022,07:55:47,0.374,1.0,0.34,0.006
07/05/2022,07:56:48,0.373,1.0,0.347,0.007
07/05/2022,07:57:46,0.374,1.0,0.353,0.006
07/05/2022,07:58:47,0.382,1.0,0.359,0.006
07/05/2022,07:59:47,0.403,1.0,0.366,0.007
07/05/2022,08:00:47,0.407,1.0,0.372,0.006
07/05/2022,08:01:56,0.419,1.0,0.38,0.008
07/05/2022,08:03:47,0.484,1.0,0.396,0.016
07/05/2022,08:04:47,0.525,1.0,0.404,0.008
07/05/2022,08:05:47,0.594,1.0,0.414,0.01
07/05/2022,08:06:47,0.605,1.0,0.424,0.01
07/05/2022,08:07:47,0.586,1.0,0.434,0.01
07/05/2022,08:08:47,0.485,1.0,0.443,0.009
07/05/2022,08:09:47,0.501,1.0,0.452,0.009
07/05/2022,08:10:48,0.632,1.0,0.462,0.01
07/05/2022,08:11:56,0.645,1.0,0.474,0.012
07/05/2022,08:13:48,0.661,2.0,0.494,0.02
07/05/2022,08:14:47,0.674,2.0,0.505,0.011
07/05/2022,08:15:48,0.674,2.0,0.517,0.012
07/05/2022,08:16:47,0.684,2.0,0.528,0.011
07/05/2022,08:17:48,0.691,2.0,0.539,0.011
07/05/2022,08:18:48,0.699,2.0,0.551,0.012
07/05/2022,08:19:48,0.710,2.0,0.563,0.012
07/05/2022,08:20:48,0.723,2.0,0.575,0.012
07/05/2022,08:21:47,0.733,2.0,0.586,0.011
07/05/2022,08:22:48,0.737,2.0,0.599,0.013
07/05/2022,08:23:47,0.741,2.0,0.611,0.012
07/05/2022,08:24:56,0.751,2.0,0.625,0.014
07/05/2022,08:26:48,0.765,2.0,0.649,0.024
07/05/2022,08:27:56,0.770,2.0,0.663,0.014
07/05/2022,08:29:57,0.787,2.0,0.689,0.026
07/05/2022,08:31:57,0.798,2.0,0.716,0.027
07/05/2022,08:33:48,0.811,2.0,0.741,0.025
07/05/2022,08:34:48,0.817,2.0,0.754,0.013
07/05/2022,08:35:47,0.826,2.0,0.768,0.014
07/05/2022,08:36:47,0.834,2.0,0.782,0.014
07/05/2022,08:37:47,0.848,2.0,0.796,0.014
07/05/2022,08:38:47,0.856,2.0,0.81,0.014
07/05/2022,08:39:47,0.864,2.0,0.824,0.014
07/05/2022,08:40:48,0.865,2.0,0.839,0.015
07/05/2022,08:41:47,0.895,2.0,0.853,0.014
07/05/2022,08:42:47,0.896,2.0,0.868,0.015
07/05/2022,08:43:48,0.899,2.0,0.884,0.016
07/05/2022,08:44:47,0.907,2.0,0.899,0.015
07/05/2022,08:45:47,0.925,2.0,0.914,0.015
07/05/2022,08:46:47,0.938,2.0,0.93,0.016
07/05/2022,08:47:47,0.956,2.0,0.945,0.015
07/05/2022,08:48:48,0.955,2.0,0.961,0.016
07/05/2022,08:49:56,0.967,2.0,0.979,0.018
07/05/2022,08:51:48,0.666,2.0,1.006,0.027
07/05/2022,08:52:47,0.964,2.0,1.021,0.015
07/05/2022,08:53:48,0.983,2.0,1.038,0.017
07/05/2022,08:54:47,0.993,2.0,1.054,0.016
07/05/2022,08:55:48,1.011,2.0,1.071,0.017
07/05/2022,08:56:48,1.000,2.0,1.087,0.016
07/05/2022,08:57:47,0.989,2.0,1.103,0.016
07/05/2022,08:58:47,0.700,2.0,1.117,0.014
07/05/2022,08:59:48,1.047,2.0,1.131,0.014
07/05/2022,09:00:47,0.716,2.0,1.147,0.016
07/05/2022,09:01:48,1.065,2.0,1.159,0.012
07/05/2022,09:02:48,1.045,2.0,1.174,0.015
07/05/2022,09:03:47,0.652,2.0,1.186,0.012
07/05/2022,09:04:56,0.726,2.0,1.199,0.013
07/05/2022,09:06:48,1.081,2.0,1.225,0.026
07/05/2022,09:07:47,1.098,3.0,1.242,0.017
07/05/2022,09:08:47,1.023,2.0,1.257,0.015
07/05/2022,09:09:47,0.766,2.0,1.273,0.016
07/05/2022,09:10:47,0.821,2.0,1.29,0.017
07/05/2022,09:11:47,0.732,2.0,1.304,0.014
07/05/2022,09:12:47,1.119,3.0,1.32,0.016
07/05/2022,09:13:59,1.131,3.0,1.343,0.023
07/05/2022,09:15:48,1.166,3.0,1.378,0.035
07/05/2022,09:16:46,1.177,3.0,1.397,0.019
07/05/2022,09:17:48,0.935,2.0,1.415,0.018
07/05/2022,09:18:47,0.807,2.0,1.429,0.014
07/05/2022,09:19:48,0.795,2.0,1.442,0.013
07/05/2022,09:20:48,1.220,3.0,1.462,0.02
07/05/2022,09:21:48,0.775,2.0,1.477,0.015
07/05/2022,09:22:47,0.721,2.0,1.492,0.015
07/05/2022,09:23:48,0.704,2.0,1.503,0.011
07/05/2022,09:24:48,0.738,2.0,1.517,0.014
07/05/2022,09:25:47,0.721,2.0,1.531,0.014
07/05/2022,09:26:48,0.901,2.0,1.545,0.014
07/05/2022,09:27:47,0.706,2.0,1.557,0.012
07/05/2022,09:28:56,0.711,2.0,1.571,0.014
07/05/2022,09:30:48,0.803,2.0,1.597,0.026
07/05/2022,09:31:55,0.775,2.0,1.613,0.016
07/05/2022,09:33:48,1.266,3.0,1.641,0.028
07/05/2022,09:34:47,1.330,3.0,1.659,0.018
07/05/2022,09:35:48,1.357,3.0,1.682,0.023
07/05/2022,09:36:48,1.374,3.0,1.705,0.023
07/05/2022,09:37:48,1.253,3.0,1.728,0.023
07/05/2022,09:38:47,1.406,3.0,1.75,0.022
07/05/2022,09:39:47,1.425,3.0,1.773,0.023
07/05/2022,09:40:49,1.317,3.0,1.795,0.022
07/05/2022,09:41:48,1.378,3.0,1.818,0.023
07/05/2022,09:42:47,1.412,3.0,1.84,0.022
07/05/2022,09:43:47,1.391,3.0,1.863,0.023
07/05/2022,09:44:47,1.443,3.0,1.888,0.025
07/05/2022,09:45:47,1.179,3.0,1.91,0.022
07/05/2022,09:46:56,0.824,2.0,1.927,0.017
07/05/2022,09:48:48,1.398,3.0,1.966,0.039
07/05/2022,09:49:47,1.441,3.0,1.989,0.023
07/05/2022,09:50:47,1.450,3.0,2.013,0.024
07/05/2022,09:51:47,1.385,3.0,2.038,0.025
07/05/2022,09:52:47,1.239,3.0,2.06,0.022
07/05/2022,09:53:48,1.276,3.0,2.08,0.02
07/05/2022,09:54:48,1.481,3.0,2.103,0.023
07/05/2022,09:55:48,1.161,3.0,2.126,0.023
07/05/2022,09:56:55,1.454,3.0,2.154,0.028
07/05/2022,09:58:48,1.422,3.0,2.193,0.039
07/05/2022,09:59:55,1.123,3.0,2.212,0.019
07/05/2022,10:01:48,1.091,3.0,2.257,0.045
07/05/2022,10:02:56,0.933,2.0,2.277,0.02
07/05/2022,10:04:48,0.878,2.0,2.308,0.031
07/05/2022,10:05:48,1.536,4.0,2.325,0.017
07/05/2022,10:06:47,1.578,4.0,2.35,0.025
07/05/2022,10:07:47,1.580,4.0,2.377,0.027
07/05/2022,10:08:48,1.585,4.0,2.403,0.026
07/05/2022,10:09:55,0.990,2.0,2.431,0.028
07/05/2022,10:11:48,0.684,2.0,2.458,0.027
07/05/2022,10:12:48,0.701,2.0,2.469,0.011
07/05/2022,10:13:49,0.759,2.0,2.481,0.012
07/05/2022,10:14:48,0.835,2.0,2.5,0.019
07/05/2022,10:15:47,0.739,2.0,2.512,0.012
07/05/2022,10:16:47,0.768,2.0,2.525,0.013
07/05/2022,10:17:48,0.835,2.0,2.539,0.014
07/05/2022,10:18:48,1.377,3.0,2.559,0.02
07/05/2022,10:19:47,0.887,2.0,2.576,0.017
07/05/2022,10:20:48,0.887,2.0,2.591,0.015
07/05/2022,10:21:48,0.914,2.0,2.606,0.015
07/05/2022,10:22:48,1.484,3.0,2.625,0.019
07/05/2022,10:23:48,0.998,2.0,2.644,0.019
07/05/2022,10:24:47,1.176,3.0,2.662,0.018
07/05/2022,10:25:47,1.730,4.0,2.687,0.025
07/05/2022,10:26:47,1.685,4.0,2.712,0.025
07/05/2022,10:27:47,1.727,4.0,2.741,0.029
07/05/2022,10:28:47,1.012,2.0,2.762,0.021
07/05/2022,10:29:47,1.714,4.0,2.785,0.023
07/05/2022,10:30:47,1.539,4.0,2.813,0.028
07/05/2022,10:31:47,1.744,4.0,2.838,0.025
07/05/2022,10:32:47,0.993,2.0,2.856,0.018
07/05/2022,10:33:47,1.725,4.0,2.876,0.02
07/05/2022,10:34:47,1.187,3.0,2.904,0.028
07/05/2022,10:35:47,1.014,2.0,2.921,0.017
07/05/2022,10:36:47,1.763,4.0,2.947,0.026
07/05/2022,10:37:56,1.783,4.0,2.981,0.034
07/05/2022,10:39:48,1.824,4.0,3.037,0.056
07/05/2022,10:40:56,1.804,4.0,3.071,0.034
07/05/2022,10:42:49,1.035,2.0,3.114,0.043
07/05/2022,10:43:48,1.287,3.0,3.134,0.02
07/05/2022,10:44:47,1.293,3.0,3.153,0.019
07/05/2022,10:45:47,1.305,3.0,3.174,0.021
07/05/2022,10:46:48,1.244,3.0,3.193,0.019
07/05/2022,10:47:47,1.508,3.0,3.213,0.02
07/05/2022,10:48:48,1.736,4.0,3.238,0.025
07/05/2022,10:49:47,1.063,2.0,3.26,0.022
07/05/2022,10:50:56,1.024,2.0,3.279,0.019
07/05/2022,10:52:49,1.010,2.0,3.311,0.032
07/05/2022,10:53:48,1.038,2.0,3.328,0.017
07/05/2022,10:54:48,1.087,2.0,3.345,0.017
07/05/2022,10:55:48,1.570,4.0,3.367,0.022